TimeMDT,TemperatureF,Dew PointF,Humidity,Sea Level PressureIn,VisibilityMPH,Wind Direction,Wind SpeedMPH,Gust SpeedMPH,PrecipitationIn,Events,Conditions,WindDirDegrees,DateUTC
12:53 AM,30.9,28.0,89,30.12,10.0,South,4.6,-,N/A,,Clear,170,2013-04-03 06:53:00
1:53 AM,26.1,24.1,92,30.13,10.0,SSE,8.1,-,N/A,,Clear,160,2013-04-03 07:53:00
2:53 AM,23.0,21.0,92,30.12,10.0,SSE,8.1,-,N/A,,Clear,160,2013-04-03 08:53:00
3:53 AM,26.1,24.1,92,30.11,10.0,South,9.2,-,N/A,,Clear,170,2013-04-03 09:53:00
4:53 AM,26.1,24.1,92,30.12,10.0,South,10.4,-,N/A,,Clear,170,2013-04-03 10:53:00
5:53 AM,28.0,26.1,92,30.13,10.0,South,6.9,-,N/A,,Clear,190,2013-04-03 11:53:00
6:12 AM,28.4,26.6,93,30.12,4.0,SSW,11.5,-,N/A,,Scattered Clouds,210,2013-04-03 12:12:00
6:15 AM,28.4,28.4,100,30.12,1.5,SSW,10.4,-,N/A,,Mostly Cloudy,210,2013-04-03 12:15:00
6:17 AM,28.4,28.4,100,30.12,1.0,SSW,10.4,-,N/A,,Mist,210,2013-04-03 12:17:00
6:24 AM,30.2,28.4,93,30.12,0.5,SSW,10.4,-,0.00,Fog-Snow,Light Snow,210,2013-04-03 12:24:00
6:39 AM,32.0,30.2,93,30.12,1.2,SSW,13.8,-,0.00,,Overcast,200,2013-04-03 12:39:00
6:42 AM,32.0,32.0,100,30.12,2.5,SSW,11.5,-,0.00,,Overcast,210,2013-04-03 12:42:00
6:49 AM,33.8,32.0,93,30.12,6.0,SSW,9.2,-,0.00,,Overcast,210,2013-04-03 12:49:00
6:53 AM,33.1,32.0,96,30.14,7.0,SSW,12.7,-,0.00,,Overcast,210,2013-04-03 12:53:00
7:49 AM,35.6,33.8,93,30.12,10.0,South,16.1,-,N/A,,Overcast,190,2013-04-03 13:49:00
7:53 AM,36.0,34.0,93,30.14,10.0,South,15.0,-,N/A,,Overcast,190,2013-04-03 13:53:00
8:45 AM,41.0,33.8,76,30.11,10.0,SSW,13.8,-,N/A,,Scattered Clouds,200,2013-04-03 14:45:00
8:53 AM,42.1,33.1,70,30.12,10.0,SSW,11.5,20.7,N/A,,Partly Cloudy,210,2013-04-03 14:53:00
9:53 AM,46.0,33.1,61,30.11,10.0,South,13.8,21.9,N/A,,Clear,190,2013-04-03 15:53:00
10:53 AM,51.1,33.1,50,30.09,10.0,South,18.4,-,N/A,,Clear,190,2013-04-03 16:53:00
11:53 AM,55.0,33.1,43,30.08,10.0,South,18.4,24.2,N/A,,Clear,190,2013-04-03 17:53:00
12:53 PM,59.0,32.0,36,30.05,10.0,SSW,16.1,21.9,N/A,,Clear,200,2013-04-03 18:53:00
1:53 PM,61.0,30.0,31,30.03,10.0,SSW,15.0,21.9,N/A,,Clear,200,2013-04-03 19:53:00
2:53 PM,64.0,27.0,25,30.01,10.0,South,11.5,18.4,N/A,,Clear,190,2013-04-03 20:53:00
3:53 PM,64.9,27.0,24,29.98,10.0,SSW,16.1,23.0,N/A,,Clear,210,2013-04-03 21:53:00
4:53 PM,64.9,26.1,23,29.97,10.0,South,11.5,19.6,N/A,,Clear,190,2013-04-03 22:53:00
5:53 PM,63.0,30.0,29,29.96,10.0,South,17.3,21.9,N/A,,Clear,170,2013-04-03 23:53:00
6:53 PM,57.0,30.9,37,29.98,10.0,South,13.8,-,N/A,,Clear,170,2013-04-04 00:53:00
7:53 PM,50.0,32.0,50,29.99,10.0,South,12.7,-,N/A,,Clear,170,2013-04-04 01:53:00
8:53 PM,46.9,33.1,59,30.02,10.0,South,11.5,-,N/A,,Clear,180,2013-04-04 02:53:00
9:53 PM,46.0,33.1,61,30.04,10.0,SSE,11.5,-,N/A,,Clear,160,2013-04-04 03:53:00
10:53 PM,39.0,30.9,73,30.05,10.0,SSE,6.9,-,N/A,,Clear,150,2013-04-04 04:53:00
11:53 PM,41.0,30.9,67,30.06,10.0,East,8.1,-,N/A,,Mostly Cloudy,100,2013-04-04 05:53:00